Showing default

HAWK-14B, 68436

Orbit data source: Space-Track

HAWK-14B, 68436 is a payload satellite owned by HawkEye 360 (US) in SSO that was launched on Mon, 30 Mar 2026 UTC via an FALCON 9 launch vehicle from the Air Force Western Test Range (AFWTR). Payload-class satellites include a variety of spacecraft equipped with specific instruments for various scientific and technological missions. These include communications satellites like Starlink; space stations such as the ISS; scientific satellites like the Hubble; Earth observation satellites from companies like Planet Labs, Umbra, and HawkEye 360; GPS; miniature CubeSats for education and research; and military/defense satellites.

Loading next visibility...
Identifier
68436, 2026-067W
Orbit
SSO
Country
Flag of USUS
Related business
Manufacturer
UTIAS-SFL
Mission
Operational Commercial Sigint
Bus & Motor
HAWK2G, Unknown motor
Mass
31 kg wet, 30 kg dry
Launch date (UTC)
2026-03-30 (5 months ago)
Launch vehicle
FALCON 9
Launch site
Air Force Western Test Range (AFWTR)
Object type
Payload
Rocket body
Debris
Shape & HBR
Box + 2 Pan, 1.0 m
Radar Cross Section
0.240 m², Medium (>0.1 m² and < 1m²)

Expand to show TLE details & history
Last TLE update: 20 hours ago

TLE from 20 hours ago
0 HAWK-14B
1 68436U 26067W   26254.86726472  .00003001  00000-0  14741-3 0  9993
2 68436  97.4640 212.1456 0004388  97.3952 262.7781 15.18825576 25095
Epoch: 2026-09-11T20:48Z
TLE epoch observation values (Epoch: 2026-09-11T20:48:51.671Z)
Latitude
-0.00005°
Longitude
-90.95415°
Altitude
512.857 km
Speed
7.607 km/s
True Right ascension
14h 08m 34s
True Declination
0° 00' 00"
Sunlit
Object was in daylight at epoch
Visualization orbit readout
Latitude
Unknown
Longitude
Unknown
Altitude
Unknown
Speed
Unknown
Apparent Right ascension
Unknown
Apparent Declination
Unknown
Sunlit
N/A
Visualization observer readout
Local Sidereal Time
09:02:11
Azimuth
Unknown
Elevation
Unknown
Doppler factor
Unknown
Orbital elements
Apogee altitude
509.38 km
Perigee altitude
503.338 km
Semi-major axis
6,884.496 km
Eccentricity
0.00044
Inclination
97.464°
RAAN
212.1456°
Arg. of periapsis
97.3952°
True anomaly
262.72822°
Mean anomaly
262.7781°
Eccentric anomaly
262.75316°
Mean motion
3.79957 °/min
Orbital period
94.75 mins
BSTAR
0.00014741
Loading maneuver chart data...
Computing Atmospheric mass density...
Loading historical data...
Loading historical data...
Loading historical data...
Loading historical data...
Loading historical data...
Loading historical data...
Loading historical data...

Documentation

Showing up to 5 results
|